Warleggan, United Kingdom

2:16 AM BST on April 22, 2019 (GMT +0100)
Warleggan

Weather History for 03823 - July, 2017

Change the Weather History Date:

Tuesday, July 18, 2017

  Actual Average Record
Temperature  
Mean Temperature 66 °F -  
Max Temperature 73 °F 64 °F - ()
Min Temperature 59 °F 55 °F - ()
Cooling Degree Days 1    
Growing Degree Days 16 (Base 50)    
Moisture  
Dew Point 59 °F    
Average Humidity 74    
Maximum Humidity 88    
Minimum Humidity 60    
Precipitation  
Precipitation 0.08 in - - ()
Sea Level Pressure  
Sea Level Pressure 29.90 in    
Wind  
Wind Speed 13 mph ()    
Max Wind Speed 28 mph    
Max Gust Speed -    
Visibility 15.0 miles    
Events Rain    
T = Trace of Precipitation, MM = Missing Value Source: Averaged Metar Reports

Daily Weather History Graph

Daily Weather History Graph

Search for Another Location

Airport or City:

Astronomy

Jul. 18, 2017 Rise Set
Actual Time 5:27 AM BST 9:21 PM BST
Civil Twilight 4:45 AM BST 10:03 PM BST
Nautical Twilight 3:46 AM BST 11:02 PM BST
Astronomical Twilight 2:02 AM BST 12:41 AM BST
Moon 1:26 AM BST (7/18) 3:49 PM BST (7/18)
Length of Visible Light 17h 18m
Length of Day
15h 53m
Waning Crescent, 32% of the Moon is Illuminated
Jul 18
Waning Crescent
Jul 23
New
Jul 30
First Quarter
Aug 7
Full
Aug 15
Last Quarter

Hourly Weather History & Observations

Time (BST) Temp. Dew Point Humidity Pressure Visibility Wind Dir Wind Speed Gust Speed Precip Events Conditions
12:00 AM 60 °F 57 °F 85% 30.12 in 19 mi ENE 3.5 mph - -   Overcast
1:00 AM 61 °F 55 °F 74% 30.09 in 28 mi NE 10.4 mph - -   Scattered Clouds
2:00 AM 62 °F 53 °F 66% 30.07 in 22 mi NE 11.5 mph - -   Overcast
4:00 AM 63 °F 55 °F 69% 30.02 in 28 mi NE 16.1 mph - -   Mostly Cloudy
5:00 AM 62 °F 56 °F 75% 30.01 in 25 mi ENE 12.7 mph - -   Mostly Cloudy
6:00 AM 63 °F 54 °F 66% 29.99 in 25 mi ENE 15.0 mph - -   Overcast
7:00 AM 64 °F 57 °F 73% 29.96 in 19 mi ENE 13.8 mph - -  
8:00 AM 65 °F 59 °F 76% 29.95 in 17 mi ENE 15.0 mph - -   Scattered Clouds
9:00 AM 66 °F 61 °F 78% 29.94 in 17 mi ENE 12.7 mph - -   Mostly Cloudy
10:00 AM 70 °F 63 °F 72% 29.92 in 15 mi ENE 16.1 mph - -  
11:00 AM 72 °F 63 °F 65% 29.89 in 16 mi ENE 19.6 mph - -  
12:00 PM 72 °F 61 °F 60% 29.88 in 17 mi ENE 20.7 mph - -  
1:00 PM 69 °F 58 °F 61% 29.88 in 22 mi ENE 20.7 mph - -   Partly Cloudy
2:00 PM 63 °F 59 °F 83% 29.88 in 7 mi East 19.6 mph - - Rain Rain Showers
3:00 PM 63 °F 60 °F 88% 29.82 in 9 mi ENE 27.6 mph - - Rain Rain
4:00 PM 65 °F 61 °F 82% 29.81 in 18 mi ENE 19.6 mph - - Rain Rain
5:00 PM 65 °F 61 °F 81% 29.79 in 9 mi ENE 21.9 mph - - Rain Rain Showers
7:00 PM 69 °F 62 °F 72% 29.75 in 17 mi ENE 16.1 mph - - Rain Rain
8:00 PM 68 °F 62 °F 74% 29.75 in 22 mi ENE 20.7 mph - -   Scattered Clouds
9:00 PM 67 °F 60 °F 71% 29.73 in 25 mi ENE 20.7 mph - -  
10:00 PM 66 °F 60 °F 74% 29.74 in 22 mi ENE 16.1 mph - -   Scattered Clouds